Change the Weather History Date:

Saturday, September 22, 2012

  Actual Average Record
Temperature  
Mean Temperature 44 °F -  
Max Temperature 62 °F 68 °F 93 °F (2007)
Min Temperature 25 °F 38 °F 25 °F (2012)
Degree Days  
Heating Degree Days 21 12  
Month to date heating degree days 174 171  
Since 1 July heating degree days 229 261  
Cooling Degree Days 0 0  
Month to date cooling degree days 32 24  
Year to date cooling degree days 580 373  
Moisture  
Dew Point 25 °F    
Average Humidity 45    
Maximum Humidity 75    
Minimum Humidity 26    
Precipitation  
Precipitation 0.00 in 0.06 in 1.25 in (2006)
Month to date precipitation 0.02 1.32  
Year to date precipitation 13.78 13.61  
Sea Level Pressure  
Sea Level Pressure 30.29 in    
Wind  
Wind Speed 7 mph (ESE)    
Max Wind Speed 12 mph    
Max Gust Speed 15 mph    
Visibility 10 miles    
Events      
T = Trace of Precipitation, MM = Missing Value Source: NWS Daily Summary

Daily Weather History Graph

Daily Weather History Graph

Search for Another Location

Airport or City:

Trip Planner

Search our weather history database for the weather conditions in past years. The results will help you decide how hot, cold, wet, or windy it might be!

Date:

Astronomy

Sep. 22, 2012 Rise Set
Actual Time 6:38 AM MDT 6:47 PM MDT
Civil Twilight 6:08 AM MDT 7:16 PM MDT
Nautical Twilight 5:33 AM MDT 7:51 PM MDT
Astronomical Twilight 4:57 AM MDT 8:27 PM MDT
Moon 2:17 PM MDT (9/22) 11:35 PM MDT (9/22)
Length of Visible Light 13h 08m
Length of Day
12h 08m
Waxing Crescent, 49% of the Moon is Illuminated
Sep 22
Waxing Crescent
Sep 22
First Quarter
Sep 29
Full
Oct 8
Last Quarter
Oct 15
New

Hourly Weather History & Observations

Time (MDT) Temp. Windchill Dew Point Humidity Pressure Visibility Wind Dir Wind Speed Gust Speed Precip Events Conditions
12:53 AM 39.9 °F 35.8 °F 26.1 °F 58% 30.22 in 10.0 mi East 5.8 mph - N/A   Clear
1:53 AM 39.0 °F 34.0 °F 26.1 °F 60% 30.24 in 10.0 mi ESE 6.9 mph - N/A   Clear
2:53 AM 36.0 °F 32.1 °F 25.0 °F 64% 30.27 in 10.0 mi East 4.6 mph - N/A   Clear
3:53 AM 34.0 °F 31.0 °F 24.1 °F 67% 30.28 in 10.0 mi SE 3.5 mph - N/A   Clear
4:53 AM 28.9 °F - 21.9 °F 75% 30.30 in 10.0 mi Calm Calm - N/A   Clear
5:53 AM 30.9 °F 27.5 °F 23.0 °F 72% 30.32 in 10.0 mi ESE 3.5 mph - N/A   Clear
7:53 AM 36.0 °F 30.3 °F 24.1 °F 62% 30.35 in 10.0 mi East 6.9 mph - N/A   Clear
8:53 AM 41.0 °F 35.2 °F 25.0 °F 53% 30.37 in 10.0 mi ESE 9.2 mph - N/A   Clear
9:53 AM 46.0 °F 41.0 °F 24.1 °F 42% 30.36 in 10.0 mi SE 10.4 mph - N/A   Clear
10:53 AM 50.0 °F - 25.0 °F 38% 30.35 in 10.0 mi SE 9.2 mph - N/A   Clear
11:53 AM 52.0 °F - 25.0 °F 35% 30.34 in 10.0 mi SE 6.9 mph - N/A   Clear
12:53 PM 55.0 °F - 26.1 °F 33% 30.32 in 10.0 mi Variable 3.5 mph - N/A   Clear
1:53 PM 57.9 °F - 26.1 °F 30% 30.30 in 10.0 mi SSE 5.8 mph - N/A   Clear
2:53 PM 59.0 °F - 25.0 °F 27% 30.28 in 10.0 mi Variable 3.5 mph - N/A   Clear
3:53 PM 61.0 °F - 26.1 °F 26% 30.27 in 10.0 mi ESE 6.9 mph - N/A   Clear
4:53 PM 61.0 °F - 26.1 °F 26% 30.27 in 10.0 mi ESE 10.4 mph - N/A   Clear
5:53 PM 59.0 °F - 26.1 °F 28% 30.27 in 10.0 mi ESE 9.2 mph - N/A   Clear
6:53 PM 53.1 °F - 25.0 °F 34% 30.27 in 10.0 mi ESE 9.2 mph - N/A   Clear
7:53 PM 50.0 °F - 25.0 °F 38% 30.27 in 10.0 mi ESE 9.2 mph - N/A   Clear
8:53 PM 46.0 °F 41.9 °F 24.1 °F 42% 30.28 in 10.0 mi ESE 8.1 mph - N/A   Clear
9:53 PM 44.1 °F 40.1 °F 21.9 °F 42% 30.29 in 10.0 mi ESE 6.9 mph - N/A   Clear
10:53 PM 43.0 °F 38.2 °F 21.0 °F 42% 30.28 in 10.0 mi ESE 8.1 mph - N/A   Clear
11:53 PM 43.0 °F 38.2 °F 21.9 °F 43% 30.28 in 10.0 mi SE 8.1 mph - N/A   Clear